User: anonymous   Login
Location: Vancouver
(49.2500°N, 123.1330°W)
Time: 07:55:47
(UTC-07:00)
Language:

ERS-2 - Orbit

View from above orbital plane
View from above orbital plane
View from above satellite
View from above satellite

Ground track
Ground track

The orbit data is extracted from the following two-line orbital elements,

1 23560U 95021A   16237.48990663  .00001865  00000-0  92211-4 0  9996
2 23560  98.5178 184.8907 0002764 214.3512 145.7541 15.19385165130319
Epoch (UTC): 24 August 2016 11:45:27
Eccentricity: 0.0002764
inclination: 98.5178°
perigee height: 506 km
apogee height: 509 km
right ascension of ascending node: 184.8907°
argument of perigee: 214.3512°
revolutions per day: 15.19385165
mean anomaly at epoch: 145.7541°
orbit number at epoch: 13031

The dashed part of the orbit path shows where the satellite is in the earth's shadow,  

DLR